DW5852 Weather Reports


Display with metric or nautical units.
time (UTC)temp
F
wind
direction
speed
MPH
gust
MPH
rain 1hr
in
rain 24hr
in
rain mn
in
humidity
%
barometer
mb
20181022224227 61 146 0.0 0.0 0.00 0.00 0.00 44 1025.1
20181022223726 61 228 0.0 0.0 0.00 0.00 0.00 45 1025.1
20181022223226 61 208 0.0 0.0 0.00 0.00 0.00 44 1025.1
20181022222726 61 188 0.0 0.0 0.00 0.00 0.00 44 1025.0
20181022222226 62 217 0.0 0.0 0.00 0.00 0.00 43 1024.9
20181022221727 62 225 0.0 0.0 0.00 0.00 0.00 43 1024.8
20181022221226 62 163 0.0 0.0 0.00 0.00 0.00 42 1024.7
20181022220726 62 245 0.0 0.0 0.00 0.00 0.00 43 1024.6
20181022220227 62 158 0.0 0.0 0.00 0.00 0.00 43 1024.5
20181022215726 63 129 0.0 1.0 0.00 0.00 0.00 42 1024.5
20181022215226 63 110 0.0 8.0 0.00 0.00 0.00 40 1024.4
20181022214726 64 122 2.0 9.0 0.00 0.00 0.00 39 1024.3
20181022214227 64 172 0.0 10.0 0.00 0.00 0.00 39 1024.3
20181022213726 63 139 0.0 7.0 0.00 0.00 0.00 42 1024.2
20181022213226 62 43 0.0 2.0 0.00 0.00 0.00 42 1024.2
20181022212728 62 349 0.0 5.0 0.00 0.00 0.00 42 1024.1
20181022212226 63 98 0.0 5.0 0.00 0.00 0.00 43 1024.1
20181022211726 63 70 0.0 6.0 0.00 0.00 0.00 41 1024.1
20181022211227 64 73 5.0 6.0 0.00 0.00 0.00 41 1024.0
20181022210726 64 148 0.0 5.0 0.00 0.00 0.00 41 1024.0
20181022210226 63 142 0.0 0.0 0.00 0.00 0.00 43 1024.1
20181022205726 64 102 0.0 0.0 0.00 0.00 0.00 43 1024.1
20181022205227 64 120 0.0 0.0 0.00 0.00 0.00 41 1024.0
20181022204726 64 274 0.0 1.0 0.00 0.00 0.00 42 1024.1
20181022204226 64 160 0.0 0.0 0.00 0.00 0.00 41 1024.0
20181022203726 63 139 0.0 0.0 0.00 0.00 0.00 44 1024.0
20181022203227 62 145 0.0 0.0 0.00 0.00 0.00 46 1024.0
20181022202726 61 84 0.0 4.0 0.00 0.00 0.00 46 1024.0
20181022202226 61 105 0.0 1.0 0.00 0.00 0.00 46 1024.0
20181022201726 62 153 0.0 0.0 0.00 0.00 0.00 46 1024.1
20181022201226 62 108 0.0 0.0 0.00 0.00 0.00 47 1024.1
20181022200726 61 125 0.0 1.0 0.00 0.00 0.00 47 1024.0
20181022200226 62 83 0.0 0.0 0.00 0.00 0.00 46 1024.0
20181022195726 62 152 0.0 0.0 0.00 0.00 0.00 46 1024.0
20181022195226 62 197 0.0 0.0 0.00 0.00 0.00 48 1024.0
20181022194728 62 161 0.0 0.0 0.00 0.00 0.00 48 1024.0
20181022194226 61 90 0.0 0.0 0.00 0.00 0.00 49 1023.9
20181022193726 62 0 0.0 0.0 0.00 0.00 0.00 46 1023.9
20181022193227 62 102 0.0 0.0 0.00 0.00 0.00 47 1024.0
20181022192729 60 158 0.0 0.0 0.00 0.00 0.00 50 1024.1
20181022192226 60 79 0.0 1.0 0.00 0.00 0.00 50 1024.1
20181022191726 60 347 0.0 0.0 0.00 0.00 0.00 49 1024.1
20181022191227 59 154 0.0 0.0 0.00 0.00 0.00 52 1024.1
20181022190726 59 139 0.0 0.0 0.00 0.00 0.00 53 1024.2
20181022190226 58 92 0.0 0.0 0.00 0.00 0.00 54 1024.2
20181022185726 57 131 0.0 1.0 0.00 0.00 0.00 55 1024.3
20181022185227 56 68 0.0 0.0 0.00 0.00 0.00 55 1024.3
20181022184726 56 115 0.0 0.0 0.00 0.00 0.00 56 1024.3
20181022184226 55 102 0.0 0.0 0.00 0.00 0.00 58 1024.3
20181022183726 55 78 0.0 0.0 0.00 0.00 0.00 57 1024.3
20181022183226 55 89 0.0 0.0 0.00 0.00 0.00 57 1024.3
20181022182727 55 68 0.0 0.0 0.00 0.00 0.00 58 1024.4
20181022182226 55 96 0.0 1.0 0.00 0.00 0.00 57 1024.4
20181022181726 56 82 0.0 0.0 0.00 0.00 0.00 57 1024.4
20181022181226 55 11 0.0 2.0 0.00 0.00 0.00 57 1024.5
20181022180726 56 65 0.0 0.0 0.00 0.00 0.00 56 1024.4
20181022180226 56 342 0.0 1.0 0.00 0.00 0.00 57 1024.5
20181022175726 56 89 0.0 1.0 0.00 0.00 0.00 57 1024.5
20181022175226 55 72 0.0 1.0 0.00 0.00 0.00 59 1024.6
20181022174726 55 117 0.0 4.0 0.00 0.00 0.00 57 1024.6
20181022174226 55 107 0.0 5.0 0.00 0.00 0.00 58 1024.6
20181022173726 56 74 0.0 7.0 0.00 0.00 0.00 58 1024.7
20181022173227 55 26 0.0 0.0 0.00 0.00 0.00 59 1024.6
20181022172726 54 58 0.0 1.0 0.00 0.00 0.00 61 1024.7
20181022172226 54 96 0.0 0.0 0.00 0.00 0.00 63 1024.7
20181022171726 54 79 0.0 0.0 0.00 0.00 0.00 64 1024.7
20181022171226 53 98 0.0 0.0 0.00 0.00 0.00 65 1024.7
20181022170726 53 101 0.0 0.0 0.00 0.00 0.00 65 1024.7
20181022170226 53 107 0.0 1.0 0.00 0.00 0.00 65 1024.8
20181022165726 53 76 0.0 7.0 0.00 0.00 0.00 64 1024.9
20181022165227 53 115 0.0 5.0 0.00 0.00 0.00 64 1024.8
20181022164726 53 155 0.0 6.0 0.00 0.00 0.00 64 1024.7
20181022164226 53 137 0.0 5.0 0.00 0.00 0.00 63 1024.8
20181022163726 53 91 0.0 3.0 0.00 0.00 0.00 64 1024.8
20181022163226 53 98 0.0 1.0 0.00 0.00 0.00 63 1024.7
20181022162726 53 84 0.0 1.0 0.00 0.00 0.00 63 1024.6
20181022162226 53 80 0.0 2.0 0.00 0.00 0.00 63 1024.7
20181022161726 52 77 0.0 1.0 0.00 0.00 0.00 64 1024.7
20181022161226 52 21 0.0 1.0 0.00 0.00 0.00 65 1024.7
20181022160726 52 65 0.0 0.0 0.00 0.00 0.00 68 1024.7
20181022160226 51 7 0.0 0.0 0.00 0.00 0.00 69 1024.7
20181022155726 50 23 0.0 0.0 0.00 0.00 0.00 71 1024.8
20181022155226 50 38 0.0 1.0 0.00 0.00 0.00 72 1024.8
20181022154726 49 14 0.0 1.0 0.00 0.00 0.00 73 1024.8
20181022154226 48 20 0.0 1.0 0.00 0.00 0.00 76 1025.0
20181022153726 48 20 0.0 1.0 0.00 0.00 0.00 76 1025.1
20181022153227 47 18 0.0 0.0 0.00 0.00 0.00 78 1025.2
20181022152726 47 356 0.0 0.0 0.00 0.00 0.00 78 1025.2
20181022152226 46 33 0.0 0.0 0.00 0.00 0.00 78 1025.3
20181022151727 46 349 0.0 0.0 0.00 0.00 0.00 78 1025.3
20181022151226 46 44 0.0 0.0 0.00 0.00 0.00 78 1025.2
20181022150726 46 27 0.0 0.0 0.00 0.00 0.00 78 1025.1
20181022150226 46 41 0.0 1.0 0.00 0.00 0.00 78 1025.1
20181022145726 46 319 0.0 0.0 0.00 0.00 0.00 79 1025.0
20181022145226 46 73 0.0 0.0 0.00 0.00 0.00 78 1025.0
20181022144726 45 60 0.0 0.0 0.00 0.00 0.00 78 1024.9
20181022144227 45 65 0.0 0.0 0.00 0.00 0.00 78 1024.8
20181022143726 45 23 0.0 0.0 0.00 0.00 0.00 78 1024.8
20181022143226 45 34 0.0 0.0 0.00 0.00 0.00 78 1024.6
20181022142726 45 9 0.0 0.0 0.00 0.00 0.00 78 1024.6
20181022142227 45 58 0.0 0.0 0.00 0.00 0.00 78 1024.7
20181022141726 45 45 0.0 0.0 0.00 0.00 0.00 78 1024.7
20181022141227 45 18 0.0 0.0 0.00 0.00 0.00 77 1024.7
20181022140726 45 65 0.0 0.0 0.00 0.00 0.00 77 1024.6
20181022140226 45 146 0.0 0.0 0.00 0.00 0.00 77 1024.7
20181022135726 45 147 0.0 0.0 0.00 0.00 0.00 77 1024.8
20181022135227 45 145 0.0 0.0 0.00 0.00 0.00 77 1024.7
20181022134726 45 58 0.0 0.0 0.00 0.00 0.00 76 1024.7
20181022134226 45 58 0.0 0.0 0.00 0.00 0.00 75 1024.8
20181022133726 46 58 0.0 0.0 0.00 0.00 0.00 74 1024.7
20181022133226 46 58 0.0 0.0 0.00 0.00 0.00 75 1024.8
20181022132726 45 330 0.0 0.0 0.00 0.00 0.00 75 1024.8
20181022132227 45 330 0.0 0.0 0.00 0.00 0.00 75 1024.8
20181022131726 46 330 0.0 0.0 0.00 0.00 0.00 75 1024.8
20181022131226 45 328 0.0 0.0 0.00 0.00 0.00 75 1024.8
20181022130726 45 340 0.0 0.0 0.00 0.00 0.00 75 1024.9
20181022125846 45 260 0.0 0.0 0.00 0.00 0.00 76 1025.1
20181022125226 45 256 0.0 0.0 0.00 0.00 0.00 76 1025.2
20181022125109 45 281 0.0 0.0 0.00 0.00 0.00 78 1025.2
20181022124226 44 264 0.0 0.0 0.00 0.00 0.00 78 1025.2
20181022124153 45 273 0.0 0.0 0.00 0.00 0.00 77 1025.1
20181022122226 46 40 0.0 0.0 0.00 0.00 0.00 76 1025.0
20181022121727 46 38 0.0 0.0 0.00 0.00 0.00 75 1025.1
20181022121226 46 38 0.0 0.0 0.00 0.00 0.00 75 1025.1
20181022120726 46 40 0.0 0.0 0.00 0.00 0.00 74 1025.1
20181022120226 46 71 0.0 0.0 0.00 0.00 0.00 75 1025.1
20181022115726 46 322 0.0 0.0 0.00 0.00 0.00 75 1025.1
20181022115227 46 300 0.0 0.0 0.00 0.00 0.00 75 1025.2
20181022114726 46 321 0.0 0.0 0.00 0.00 0.00 75 1025.2
20181022114226 45 295 0.0 0.0 0.00 0.00 0.00 76 1025.2
20181022113726 45 319 0.0 0.0 0.00 0.00 0.00 76 1025.3
20181022113226 45 267 0.0 0.0 0.00 0.00 0.00 76 1025.4
20181022112726 45 311 0.0 0.0 0.00 0.00 0.00 77 1025.5
20181022112226 45 317 0.0 0.0 0.00 0.00 0.00 77 1025.6
20181022111726 45 318 0.0 0.0 0.00 0.00 0.00 77 1025.7
20181022111226 45 6 0.0 0.0 0.00 0.00 0.00 77 1025.9
20181022110726 45 53 0.0 0.0 0.00 0.00 0.00 76 1026.0
20181022110227 45 53 0.0 0.0 0.00 0.00 0.00 76 1026.0
20181022105726 45 51 0.0 0.0 0.00 0.00 0.00 76 1026.1
20181022105227 45 57 0.0 0.0 0.00 0.00 0.00 76 1026.1
20181022104726 45 58 0.0 0.0 0.00 0.00 0.00 75 1026.3
20181022104226 46 58 0.0 0.0 0.00 0.00 0.00 74 1026.2
20181022103726 46 58 0.0 0.0 0.00 0.00 0.00 73 1026.3
20181022103227 46 343 0.0 0.0 0.00 0.00 0.00 73 1026.3
20181022102726 46 20 0.0 0.0 0.00 0.00 0.00 72 1026.3
20181022102229 47 18 0.0 0.0 0.00 0.00 0.00 72 1026.3
20181022101728 47 18 0.0 0.0 0.00 0.00 0.00 71 1026.5
20181022101226 47 63 0.0 0.0 0.00 0.00 0.00 71 1026.4
20181022100726 47 63 0.0 0.0 0.00 0.00 0.00 71 1026.5
20181022100226 47 68 0.0 0.0 0.00 0.00 0.00 70 1026.7
20181022095726 47 82 0.0 0.0 0.00 0.00 0.00 70 1026.7
20181022095226 47 82 0.0 0.0 0.00 0.00 0.00 70 1026.9
20181022094726 48 27 0.0 0.0 0.00 0.00 0.00 69 1026.9
20181022094227 48 27 0.0 0.0 0.00 0.00 0.00 68 1026.9
20181022093728 48 27 0.0 0.0 0.00 0.00 0.00 69 1027.0
20181022093229 48 46 0.0 0.0 0.00 0.00 0.00 69 1027.1
20181022092726 48 47 0.0 0.0 0.00 0.00 0.00 69 1027.0
20181022092226 48 101 0.0 0.0 0.00 0.00 0.00 69 1027.0
20181022091726 48 107 0.0 0.0 0.00 0.00 0.00 69 1027.1
20181022091226 49 106 0.0 0.0 0.00 0.00 0.00 67 1027.2
20181022090726 49 107 0.0 0.0 0.00 0.00 0.00 67 1027.4
20181022090227 49 88 0.0 0.0 0.00 0.00 0.00 67 1027.5
20181022085726 49 87 0.0 0.0 0.00 0.00 0.00 68 1027.6
20181022085227 49 269 0.0 0.0 0.00 0.00 0.00 67 1027.5
20181022084726 49 268 0.0 0.0 0.00 0.00 0.00 66 1027.6
20181022084226 49 269 0.0 0.0 0.00 0.00 0.00 66 1027.5
20181022083726 49 271 0.0 0.0 0.00 0.00 0.00 67 1027.6
20181022083227 49 259 0.0 0.0 0.00 0.00 0.00 66 1027.6
20181022082726 49 246 0.0 0.0 0.00 0.00 0.00 66 1027.7
20181022082228 49 273 0.0 0.0 0.00 0.00 0.00 66 1027.6
20181022081727 49 264 0.0 0.0 0.00 0.00 0.00 67 1027.6
20181022081227 49 265 0.0 0.0 0.00 0.00 0.00 66 1027.7
20181022080726 49 264 0.0 0.0 0.00 0.00 0.00 68 1027.8
20181022080226 48 262 0.0 0.0 0.00 0.00 0.00 68 1027.9
20181022075726 48 250 0.0 0.0 0.00 0.00 0.00 67 1027.9
20181022075226 48 253 0.0 0.0 0.00 0.00 0.00 67 1027.9
20181022074726 48 260 0.0 0.0 0.00 0.00 0.00 66 1028.0
20181022074226 48 264 0.0 0.0 0.00 0.00 0.00 66 1028.1
20181022073726 48 260 0.0 0.0 0.00 0.00 0.00 67 1028.2
20181022073227 48 256 0.0 0.0 0.00 0.00 0.00 67 1028.3
20181022072726 48 257 0.0 0.0 0.00 0.00 0.00 67 1028.3
20181022072226 48 256 0.0 0.0 0.00 0.00 0.00 67 1028.3
20181022071726 48 103 0.0 0.0 0.00 0.00 0.00 67 1028.3
20181022071226 48 101 0.0 0.0 0.00 0.00 0.00 66 1028.2
20181022070726 49 103 0.0 0.0 0.00 0.00 0.00 65 1028.2
20181022070228 50 103 0.0 0.0 0.00 0.00 0.00 63 1028.3
20181022065726 50 98 0.0 0.0 0.00 0.00 0.00 63 1028.2
20181022065226 50 51 0.0 0.0 0.00 0.00 0.00 62 1028.1
20181022064726 50 36 0.0 0.0 0.00 0.00 0.00 62 1028.0
20181022064227 50 30 0.0 0.0 0.00 0.00 0.00 61 1028.2
20181022063726 51 79 0.0 0.0 0.00 0.00 0.00 61 1028.1
20181022063226 51 108 0.0 0.0 0.00 0.00 0.00 60 1028.1
20181022062726 51 98 0.0 0.0 0.00 0.00 0.00 60 1028.0
20181022062226 51 93 0.0 0.0 0.00 0.00 0.00 59 1028.2
20181022061726 51 80 0.0 0.0 0.00 0.00 0.00 58 1028.1
20181022061226 51 271 0.0 0.0 0.00 0.00 0.00 57 1028.2
20181022060726 52 284 0.0 0.0 0.00 0.00 0.00 56 1028.4
20181022060226 52 330 0.0 0.0 0.00 0.00 0.00 58 1028.4
20181022055727 52 257 0.0 0.0 0.00 0.00 0.00 57 1028.4
20181022055226 52 257 0.0 0.0 0.00 0.00 0.00 56 1028.5
20181022054726 52 259 0.0 0.0 0.00 0.00 0.00 55 1028.6
20181022054227 52 256 0.0 0.0 0.00 0.00 0.00 55 1028.6
20181022053726 52 262 0.0 0.0 0.00 0.00 0.00 56 1028.7
20181022053226 52 274 0.0 0.0 0.00 0.00 0.00 57 1028.6
20181022052726 52 267 0.0 0.0 0.00 0.00 0.00 57 1028.7
20181022052226 52 266 0.0 0.0 0.00 0.00 0.00 57 1028.8
20181022051726 52 257 0.0 0.0 0.00 0.00 0.00 58 1028.8
20181022051226 52 269 0.0 0.0 0.00 0.00 0.00 59 1028.8
20181022050726 52 256 0.0 0.0 0.00 0.00 0.00 60 1028.7
20181022050226 51 256 0.0 1.0 0.00 0.00 0.00 60 1028.6
20181022045726 52 250 0.0 0.0 0.00 0.00 0.00 60 1028.6
20181022045226 52 228 0.0 0.0 0.00 0.00 0.00 58 1028.6
20181022044726 52 264 0.0 0.0 0.00 0.00 0.00 59 1028.5
20181022044226 52 260 0.0 0.0 0.00 0.00 0.00 60 1028.5
20181022043727 52 259 0.0 0.0 0.00 0.00 0.00 61 1028.4
20181022043226 52 252 0.0 0.0 0.00 0.00 0.00 62 1028.5
20181022042726 52 273 0.0 0.0 0.00 0.00 0.00 62 1028.5
20181022042227 52 250 0.0 0.0 0.00 0.00 0.00 62 1028.6
20181022041726 52 235 0.0 1.0 0.00 0.00 0.00 62 1028.6
20181022041226 52 242 0.0 6.0 0.00 0.00 0.00 62 1028.5
20181022040726 52 253 4.0 4.0 0.00 0.00 0.00 62 1028.5
20181022040227 51 206 0.0 0.0 0.00 0.00 0.00 62 1028.5
20181022035726 52 191 0.0 11.0 0.00 0.00 0.00 61 1028.4
20181022035226 52 235 11.0 12.0 0.00 0.00 0.00 61 1028.3
20181022034726 51 256 6.0 10.0 0.00 0.00 0.00 61 1028.3
20181022034226 51 232 0.0 0.0 0.00 0.00 0.00 60 1028.3
20181022033726 52 253 0.0 1.0 0.00 0.00 0.00 60 1028.3
20181022033226 51 221 0.0 0.0 0.00 0.00 0.00 60 1028.2
20181022032727 51 264 0.0 0.0 0.00 0.00 0.00 60 1028.1
20181022032226 51 245 0.0 0.0 0.00 0.00 0.00 61 1028.1
20181022031726 50 246 0.0 0.0 0.00 0.00 0.00 61 1028.1
20181022031226 50 236 0.0 0.0 0.00 0.00 0.00 61 1028.0
20181022030726 50 249 0.0 0.0 0.00 0.00 0.00 61 1028.1
20181022030226 50 249 0.0 0.0 0.00 0.00 0.00 61 1028.2
20181022025726 51 266 0.0 0.0 0.00 0.00 0.00 61 1028.3
20181022025226 50 281 0.0 0.0 0.00 0.00 0.00 61 1028.2
20181022024726 50 262 0.0 0.0 0.00 0.00 0.00 62 1028.2
20181022024226 50 253 0.0 0.0 0.00 0.00 0.00 62 1028.2
20181022023726 50 249 0.0 0.0 0.00 0.00 0.00 63 1028.3
20181022023226 50 218 0.0 0.0 0.00 0.00 0.00 64 1028.3
20181022022726 50 211 0.0 0.0 0.00 0.00 0.00 64 1028.2
20181022022226 50 188 0.0 0.0 0.00 0.00 0.00 63 1028.1
20181022021727 51 199 0.0 0.0 0.00 0.00 0.00 62 1028.1
20181022021226 51 256 0.0 0.0 0.00 0.00 0.00 62 1028.1
20181022020726 51 235 0.0 0.0 0.00 0.00 0.00 63 1028.1
20181022020226 51 232 0.0 0.0 0.00 0.00 0.00 63 1028.0
20181022015726 51 257 0.0 0.0 0.00 0.00 0.00 63 1027.9
20181022015226 51 221 0.0 0.0 0.00 0.00 0.00 63 1027.8
20181022014726 51 262 0.0 0.0 0.00 0.00 0.00 64 1027.7
20181022014226 51 236 0.0 0.0 0.00 0.00 0.00 64 1027.7
20181022013726 51 205 0.0 0.0 0.00 0.00 0.00 64 1027.7
20181022013226 52 210 0.0 0.0 0.00 0.00 0.00 63 1027.8
20181022012726 52 170 0.0 0.0 0.00 0.00 0.00 63 1027.8
20181022012226 51 162 0.0 0.0 0.00 0.00 0.00 63 1027.8
20181022011726 51 193 0.0 0.0 0.00 0.00 0.00 63 1027.9
20181022011227 52 177 0.0 0.0 0.00 0.00 0.00 62 1027.8
20181022010728 52 176 0.0 0.0 0.00 0.00 0.00 61 1027.8
20181022010226 53 172 0.0 0.0 0.00 0.00 0.00 61 1027.8
20181022005726 53 170 0.0 0.0 0.00 0.00 0.00 60 1027.8
20181022005227 53 190 0.0 0.0 0.00 0.00 0.00 59 1027.7
20181022004726 54 186 0.0 0.0 0.00 0.00 0.00 59 1027.6
20181022004226 54 203 0.0 0.0 0.00 0.00 0.00 58 1027.5
20181022003726 54 205 0.0 0.0 0.00 0.00 0.00 58 1027.3
20181022003226 54 194 0.0 0.0 0.00 0.00 0.00 57 1027.2
20181022002726 55 210 0.0 1.0 0.00 0.00 0.00 57 1027.1
20181022002242 55 200 0.0 1.0 0.00 0.00 0.00 56 1027.0
20181022001531 55 194 0.0 0.0 0.00 0.00 0.00 55 1026.9
20181022000902 57 160 0.0 2.0 0.00 0.00 0.00 53 1026.8
20181021234726 58 159 0.0 0.0 0.00 0.00 0.00 51 1026.7
20181021234226 59 142 0.0 1.0 0.00 0.00 0.00 51 1026.6
20181021233227 59 219 1.0 6.0 0.00 0.00 0.00 50 1026.5
20181021232726 59 174 3.0 6.0 0.00 0.00 0.00 49 1026.4
20181021232226 60 183 0.0 5.0 0.00 0.00 0.00 49 1026.4
20181021231726 60 174 0.0 6.0 0.00 0.00 0.00 48 1026.3
20181021231226 61 183 0.0 4.0 0.00 0.00 0.00 47 1026.3
20181021230726 61 148 0.0 3.0 0.00 0.00 0.00 47 1026.3
20181021230226 61 163 1.0 7.0 0.00 0.00 0.00 47 1026.3
20181021225726 60 172 0.0 9.0 0.00 0.00 0.00 48 1026.3
20181021225226 60 170 1.0 8.0 0.00 0.00 0.00 47 1026.2
20181021224726 60 241 0.0 7.0 0.00 0.00 0.00 48 1026.3